[[{"header":{"parameterUnit":"m.s-1","parameterCategory":1,"la1":30.2991,"la2":30.254,"lo1":-89.0895,"lo2":-89.0444,"dy":0.0017,"dx":0.0017,"nx":28,"ny":28,"refTime":"2023-04-16T21:00:00:Z","depth":0,"parameterNumber":2,"parameterNumberName":"U-component_of_WINDS"},"data":[0,0,0,0,0,0,0,0,0,0,0,0,0,0,0,0,0,0,0,0,0,0,0,0,0,0,0,0,0,0,0,0,0,0,0,0,0,0,0,0,0,0,0,0,0,0,0,0,0,0,0,0,0,0,0,0,0,0,0.26,0.2599,0,0.255,0.255,0.2549,0.2598,0.26,0.2602,0.2603,0.2549,0.2546,0.2543,0,0,0,0,0,0,0,0,0,0,0,0,0,0.2734,0.2732,0.26,0.2599,0.2599,0.255,0.255,0.2549,0.2597,0.26,0.2602,0.2604,0.2551,0.2547,0.2543,0,0,0,0,0,0,0,0,0,0,0,0,0,0.2679,0.2731,0.26,0.2617,0.2618,0.255,0.255,0.2549,0.2597,0.26,0.2603,0.2605,0.2552,0.2547,0.2542,0.2454,0,0,0.2527,0.2525,0,0,0,0,0,0,0,0,0.2682,0.2674,0.2615,0.2616,0.2617,0.2583,0.2577,0.2517,0.2596,0.2605,0.2604,0.2607,0.2558,0.2553,0.2537,0.2452,0.2449,0.2527,0.2524,0.2522,0.2521,0,0,0,0,0,0,0,0.2686,0.2677,0.258,0.2614,0.2615,0.2627,0.2622,0.2566,0.2566,0.2604,0.2608,0.2601,0.2559,0.2542,0.2536,0.2449,0.2527,0.2523,0.252,0.2518,0.2288,0.2285,0,0,0,0,0,0,0.2688,0.268,0.2582,0.2579,0.2658,0.2622,0.2617,0.2591,0.2567,0.2566,0.2599,0.2604,0.2549,0.2542,0.2535,0.2429,0.2522,0.2517,0.2515,0.2291,0.2287,0.2284,0,0,0,0,0,0,0.2691,0.2679,0.2584,0.263,0.2619,0.2616,0.2587,0.2588,0.2571,0.2563,0.2562,0.2581,0.2551,0.2541,0.2474,0.2428,0.2515,0.2511,0.2295,0.229,0.2286,0.2218,0,0,0,0,0,0,0.2695,0.268,0.2647,0.2629,0.2616,0.2524,0.2584,0.2585,0.2563,0.2569,0.2546,0.2545,0.2552,0.2481,0.2469,0.2423,0.2507,0.2299,0.2293,0.2287,0.2224,0.2211,0.22,0,0,0,0,0,0.2699,0.2629,0.2645,0.2633,0.2575,0.2522,0.2514,0.2525,0.2559,0.2525,0.252,0.2546,0.2435,0.2474,0.2461,0.2412,0.2302,0.2295,0.2288,0.2229,0.2214,0.22,0,0,0,0,0,0,0.264,0.2627,0.2644,0.2566,0.2545,0.253,0.2488,0.2508,0.2475,0.2482,0.2496,0.2491,0.2419,0.2409,0.2452,0.2326,0.2374,0.2364,0.2334,0.2319,0.2308,0.231,0.2503,0,0,0,0,0,0.2618,0.2577,0.2568,0.2499,0.2488,0.249,0.2467,0.2477,0.2455,0.2446,0.2436,0.2412,0.2373,0.2346,0.2309,0.2224,0.2219,0.2184,0.2172,0.2162,0.2153,0.2106,0.209,0.226,0.226,0.2261,0,0,0.2572,0.256,0.2532,0.2487,0.2472,0.2428,0.2481,0.2433,0.24,0.2438,0.2374,0.2366,0.2341,0.2264,0.2229,0.2253,0.2105,0.2153,0.2146,0.2141,0.2097,0.2081,0.2067,0.2255,0.2256,0.2257,0,0,0.2465,0.2452,0.2394,0.2377,0.2354,0.2356,0.2342,0.2324,0.232,0.2256,0.2284,0.2245,0.2177,0.2158,0.2139,0.2026,0.2048,0.2014,0.195,0.1905,0.1892,0.188,0.1838,0.1823,0.2005,0.2004,0.2004,0,0.2409,0.2345,0.2361,0.231,0.2289,0.2323,0.2264,0.2247,0.2212,0.2196,0.2224,0.2139,0.2125,0.2044,0.2016,0.2001,0.1984,0.2015,0.1893,0.1881,0.187,0.183,0.1815,0.2,0.2001,0.2001,0.2002,0,0.2278,0.2233,0.2189,0.2155,0.213,0.2074,0.2081,0.2053,0.2066,0.2065,0.1999,0.1983,0.1944,0.1926,0.1938,0.1846,0.1862,0.1891,0.1939,0.1849,0.1812,0.1797,0.1994,0.1996,0.1997,0.1998,0,0,0.213,0.2107,0.209,0.2075,0.2053,0.2017,0.1964,0.1927,0.1902,0.1877,0.1832,0.1774,0.1801,0.178,0.179,0.175,0.1661,0.1785,0.1784,0.176,0.1557,0.1534,0.1516,0.1676,0.1673,0.1671,0.1559,0,0.2021,0.1929,0.1942,0.1853,0.1811,0.1844,0.1797,0.1778,0.1776,0.1739,0.1737,0.1695,0.1735,0.1722,0.1685,0.1679,0.162,0.1688,0.1632,0.163,0.1635,0.1497,0.1472,0.1366,0.1545,0.1542,0.154,0,0.188,0.1852,0.1759,0.1743,0.1726,0.1684,0.165,0.1616,0.1594,0.1596,0.1573,0.159,0.1536,0.1588,0.1513,0.1559,0.1538,0.1532,0.1528,0.1521,0.1578,0.1484,0.1333,0.1317,0.1518,0.152,0.1521,0,0.1779,0.1718,0.1654,0.1641,0.1621,0.159,0.1581,0.1563,0.1539,0.151,0.1495,0.1459,0.1439,0.1411,0.1419,0.1456,0.1341,0.1394,0.1339,0.1339,0.1311,0.1313,0.1152,0.1301,0.1301,0.1302,0.1302,0,0.1655,0.1596,0.1608,0.1569,0.1504,0.152,0.1455,0.145,0.1433,0.1393,0.142,0.1381,0.1394,0.1356,0.1362,0.1298,0.1289,0.1288,0.1289,0.1284,0.1284,0.1268,0.1275,0.1298,0.1299,0.1299,0.13,0,0.153,0.1536,0.1468,0.1456,0.1452,0.1404,0.1393,0.1356,0.1357,0.1305,0.1294,0.1294,0.1251,0.1256,0.1208,0.1212,0.1132,0.1143,0.1139,0.114,0.1085,0.1089,0.0907,0.0884,0.105,0.1048,0.1047,0,0.1449,0.1404,0.1388,0.1363,0.1351,0.1311,0.1288,0.1302,0.1276,0.125,0.1215,0.1174,0.1142,0.1071,0.1067,0.1029,0.1039,0.0978,0.1033,0.1029,0.1036,0.1037,0.1032,0.0966,0.0964,0.0963,0.0961,0,0.1304,0.1309,0.1275,0.1241,0.1213,0.1187,0.1164,0.1142,0.1154,0.1124,0.108,0.1056,0.1007,0.0965,0.093,0.092,0.0941,0.0945,0.093,0.0922,0.092,0.0919,0.1106,0.0948,0.0949,0.095,0.0951,0.0951,0.1197,0.1159,0.1141,0.1102,0.1087,0.1064,0.1029,0.1026,0.099,0.0951,0.0962,0.0912,0.0893,0.0849,0.0834,0.0795,0.0817,0.0796,0.079,0.0784,0.0777,0.0929,0.0789,0.079,0.079,0.079,0.0791,0,0.1051,0.1042,0.1006,0.0973,0.0942,0.0968,0.0944,0.0916,0.0872,0.0853,0.0821,0.0771,0.0731,0.0725,0.0687,0.0656,0.0666,0.0646,0.0647,0.0644,0.076,0.0776,0.0639,0.0639,0.0639,0.0639,0.0639,0.0639,0.0972,0.0909,0.0912,0.0842,0.0833,0.0785,0.0769,0.0749,0.0733,0.0676,0.0644,0.064,0.0625,0.0587,0.0551,0.0551,0.0534,0.051,0.0513,0.0621,0.0636,0.065,0.0665,0.0507,0.0507,0.0399,0.0398,0.0398]},{"header":{"parameterUnit":"m.s-1","parameterCategory":1,"la1":30.2991,"la2":30.254,"lo1":-89.0895,"lo2":-89.0444,"dy":0.0017,"dx":0.0017,"nx":28,"ny":28,"refTime":"2023-04-16T21:00:00:Z","depth":0,"parameterNumber":3,"parameterNumberName":"V-component_of_WINDS"},"data":[0,0,0,0,0,0,0,0,0,0,0,0,0,0,0,0,0,0,0,0,0,0,0,0,0,0,0,0,0,0,0,0,0,0,0,0,0,0,0,0,0,0,0,0,0,0,0,0,0,0,0,0,0,0,0,0,0,0,-3.1938,-3.1938,0,-3.2028,-3.2029,-3.203,-3.196,-3.1957,-3.1954,-3.1951,-3.2041,-3.2046,-3.2051,0,0,0,0,0,0,0,0,0,0,0,0,0,-3.1702,-3.1707,-3.1937,-3.1939,-3.194,-3.2027,-3.2029,-3.203,-3.196,-3.1957,-3.1953,-3.1949,-3.204,-3.2046,-3.2052,0,0,0,0,0,0,0,0,0,0,0,0,0,-3.1799,-3.1708,-3.1937,-3.1916,-3.1915,-3.2027,-3.2029,-3.203,-3.1961,-3.1956,-3.1952,-3.1948,-3.2037,-3.2045,-3.2053,-3.2191,0,0,-3.2077,-3.208,0,0,0,0,0,0,0,0,-3.1794,-3.1808,-3.1918,-3.1917,-3.1916,-3.1978,-3.1979,-3.2084,-3.1962,-3.1943,-3.1951,-3.1946,-3.2024,-3.2032,-3.2059,-3.2195,-3.2199,-3.2077,-3.2082,-3.2085,-3.2088,0,0,0,0,0,0,0,-3.1787,-3.1804,-3.1973,-3.1919,-3.1919,-3.19,-3.1909,-3.1998,-3.2008,-3.1945,-3.194,-3.1951,-3.2022,-3.2052,-3.2061,-3.22,-3.2077,-3.2084,-3.2089,-3.2092,-3.2453,-3.2457,0,0,0,0,0,0,-3.1783,-3.1799,-3.197,-3.1976,-3.1843,-3.1908,-3.1918,-3.1963,-3.2006,-3.2009,-3.1955,-3.1948,-3.2041,-3.2052,-3.2064,-3.2228,-3.2085,-3.2093,-3.2097,-3.2448,-3.2454,-3.2459,0,0,0,0,0,0,-3.1778,-3.1799,-3.1966,-3.1886,-3.1906,-3.1917,-3.1968,-3.1967,-3.1996,-3.2014,-3.2015,-3.1984,-3.2037,-3.2053,-3.216,-3.223,-3.2096,-3.2103,-3.2442,-3.245,-3.2456,-3.2558,0,0,0,0,0,0,-3.1772,-3.1798,-3.1851,-3.1888,-3.191,-3.2063,-3.1972,-3.1972,-3.201,-3.2001,-3.2041,-3.2044,-3.2035,-3.2148,-3.2167,-3.2238,-3.2109,-3.2436,-3.2445,-3.2454,-3.2548,-3.2568,-3.2584,0,0,0,0,0,-3.1764,-3.1876,-3.1854,-3.1875,-3.1978,-3.2067,-3.208,-3.2068,-3.2016,-3.2069,-3.2081,-3.2042,-3.2219,-3.216,-3.2181,-3.2255,-3.2431,-3.2443,-3.2453,-3.254,-3.2564,-3.2584,0,0,0,0,0,0,-3.1848,-3.1881,-3.1857,-3.1985,-3.2023,-3.2055,-3.2122,-3.2094,-3.2148,-3.2137,-3.2119,-3.2129,-3.2241,-3.2258,-3.2192,-3.239,-3.2317,-3.2332,-3.2375,-3.2398,-3.2416,-3.241,-3.2116,0,0,0,0,0,-3.1881,-3.1951,-3.1976,-3.2086,-3.2107,-3.2111,-3.2149,-3.2137,-3.2176,-3.2192,-3.2211,-3.225,-3.2314,-3.2357,-3.2417,-3.2549,-3.2557,-3.2611,-3.2629,-3.2643,-3.2658,-3.2728,-3.2752,-3.2495,-3.2495,-3.2495,0,0,-3.1951,-3.1977,-3.2023,-3.2104,-3.2132,-3.2204,-3.2126,-3.2206,-3.2259,-3.2204,-3.2306,-3.2322,-3.2364,-3.2484,-3.2538,-3.2502,-3.273,-3.2657,-3.2669,-3.2675,-3.2742,-3.2766,-3.2788,-3.2503,-3.2501,-3.25,0,0,-3.2115,-3.2143,-3.2237,-3.2267,-3.2311,-3.2313,-3.2336,-3.2371,-3.238,-3.2482,-3.2442,-3.2504,-3.2615,-3.2646,-3.2677,-3.2851,-3.2817,-3.287,-3.2965,-3.3034,-3.3054,-3.3072,-3.3134,-3.3157,-3.2884,-3.2884,-3.2884,0,-3.2196,-3.2305,-3.2289,-3.2372,-3.2408,-3.2362,-3.2457,-3.2486,-3.2548,-3.2573,-3.2532,-3.2669,-3.2694,-3.282,-3.2863,-3.2889,-3.2914,-3.2866,-3.3053,-3.3071,-3.3087,-3.3146,-3.3169,-3.289,-3.289,-3.2889,-3.2889,0,-3.2402,-3.2477,-3.2548,-3.2609,-3.2653,-3.2741,-3.2738,-3.2784,-3.2767,-3.2773,-3.2877,-3.2905,-3.2969,-3.2998,-3.2982,-3.3122,-3.3098,-3.3055,-3.2981,-3.3118,-3.3173,-3.3195,-3.2899,-3.2897,-3.2895,-3.2894,0,0,-3.2624,-3.2674,-3.27,-3.2727,-3.2771,-3.2828,-3.2914,-3.2977,-3.3017,-3.3059,-3.313,-3.3224,-3.3184,-3.3219,-3.3205,-3.3266,-3.3401,-3.3215,-3.3215,-3.3249,-3.3557,-3.359,-3.3616,-3.3379,-3.3383,-3.3386,-3.3553,0,-3.2791,-3.2941,-3.2928,-3.307,-3.3139,-3.3094,-3.3168,-3.3203,-3.321,-3.3268,-3.3275,-3.3342,-3.3284,-3.3305,-3.3363,-3.3373,-3.3463,-3.336,-3.3444,-3.3447,-3.3436,-3.3645,-3.3681,-3.3837,-3.3575,-3.3578,-3.3581,0,-3.3006,-3.3057,-3.3205,-3.3238,-3.3266,-3.3333,-3.3389,-3.3446,-3.3483,-3.3484,-3.3522,-3.3498,-3.3583,-3.3506,-3.3622,-3.3552,-3.3585,-3.3595,-3.3601,-3.3609,-3.3523,-3.366,-3.3887,-3.3911,-3.3615,-3.3612,-3.361,0,-3.3153,-3.3258,-3.3361,-3.3384,-3.3425,-3.3473,-3.3492,-3.3525,-3.3563,-3.3612,-3.3636,-3.3694,-3.3726,-3.377,-3.3762,-3.3706,-3.388,-3.3802,-3.3882,-3.3883,-3.3922,-3.392,-3.4159,-3.3942,-3.3942,-3.3941,-3.3941,0,-3.3341,-3.3434,-3.3427,-3.3491,-3.3592,-3.3576,-3.3677,-3.369,-3.3719,-3.3783,-3.3747,-3.3808,-3.3793,-3.3852,-3.3846,-3.3943,-3.3957,-3.3959,-3.3957,-3.3964,-3.3963,-3.3986,-3.3975,-3.3948,-3.3946,-3.3945,-3.3944,0,-3.3524,-3.3523,-3.3632,-3.3661,-3.367,-3.3744,-3.3768,-3.3827,-3.383,-3.3911,-3.3929,-3.3934,-3.4003,-3.3998,-3.4075,-3.407,-3.419,-3.4174,-3.4178,-3.4175,-3.4256,-3.4249,-3.4518,-3.4553,-3.4313,-3.4315,-3.4317,0,-3.3645,-3.3715,-3.3751,-3.3792,-3.3814,-3.388,-3.3918,-3.3904,-3.3945,-3.3992,-3.4046,-3.411,-3.4162,-3.4272,-3.4282,-3.434,-3.4326,-3.4416,-3.4335,-3.4339,-3.4328,-3.4324,-3.4331,-3.4433,-3.4436,-3.4438,-3.444,0,-3.3859,-3.3855,-3.3913,-3.397,-3.4017,-3.4062,-3.4102,-3.4137,-3.4126,-3.4175,-3.4244,-3.4284,-3.4362,-3.4427,-3.4482,-3.4499,-3.4468,-3.4465,-3.4487,-3.4495,-3.4495,-3.4496,-3.4223,-3.4459,-3.4457,-3.4456,-3.4455,-3.4454,-3.4015,-3.4075,-3.411,-3.4175,-3.4204,-3.4242,-3.4298,-3.4308,-3.4366,-3.4429,-3.4416,-3.4494,-3.4528,-3.4598,-3.4622,-3.4681,-3.4649,-3.468,-3.4689,-3.4697,-3.4707,-3.4484,-3.4691,-3.4691,-3.469,-3.469,-3.4689,0,-3.4228,-3.4248,-3.4308,-3.4365,-3.4416,-3.4381,-3.4424,-3.4468,-3.4538,-3.4572,-3.4623,-3.4702,-3.4764,-3.4778,-3.4837,-3.4882,-3.4869,-3.4898,-3.4895,-3.49,-3.4732,-3.4708,-3.4908,-3.4908,-3.4908,-3.4907,-3.4907,-3.4907,-3.4346,-3.4445,-3.4445,-3.4557,-3.4576,-3.4652,-3.468,-3.4714,-3.4741,-3.4831,-3.4883,-3.4891,-3.4917,-3.4977,-3.5032,-3.5035,-3.5058,-3.5093,-3.509,-3.4934,-3.4912,-3.4891,-3.4868,-3.5098,-3.5099,-3.5253,-3.5255,-3.5256]}]]